Location: Austin
(30.3000°N, 97.7500°W)
Time: 11:44:33
(UTC-05:00)

Cosmos 2333 Rocket - Pass Details

Date: 26 May 2023
Orbit: 838 x 864 km, 70.8° (Epoch: 31 May)

Event Time Altitude Azimuth Distance (km) Brightness Sun altitude
Rises 20:40:53 0° 191° (S) 3,424 5.2 -3.9°
Reaches altitude 10° 20:43:20 10° 189° (S) 2,492 4.5 -4.4°
Maximum altitude 20:49:01 67° 107° (ESE) 932 2.3 -5.5°
Drops below altitude 10° 20:54:44 10° 26° (NNE) 2,503 4.7 -6.6°
Sets 20:57:12 0° 24° (NNE) 3,441 5.5 -7.0°
